DW4236 Weather Reports


time (UTC)temp
F
wind
direction
speed
knots
gust
knots
rain 1hr
in
rain 24hr
in
rain mn
in
humidity
%
barometer
mb
20260906231604 69 53 0.0 2.6 0.00 0.00 0.00 65 1017.4
20260906231104 69 13 0.9 1.7 0.00 0.00 0.00 64 1017.3
20260906230604 70 13 0.9 2.6 0.00 0.00 0.00 64 1017.3
20260906230104 70 15 1.7 4.3 0.00 0.00 0.00 62 1017.2
20260906225604 70 53 0.0 1.7 0.00 0.00 0.00 62 1017.2
20260906225105 71 55 0.9 2.6 0.00 0.00 0.00 61 1017.1
20260906223604 71 36 1.7 4.3 0.00 0.00 0.00 60 1017.0
20260906223104 72 58 2.6 7.0 0.00 0.00 0.00 61 1017.1
20260906222604 72 46 1.7 5.2 0.00 0.00 0.00 61 1017.0
20260906222104 72 3 2.6 7.8 0.00 0.00 0.00 59 1017.0
20260906221605 72 26 1.7 10.4 0.00 0.00 0.00 59 1017.0
20260906221104 72 86 3.5 11.3 0.00 0.00 0.00 59 1017.1
20260906220604 73 26 3.5 10.4 0.00 0.00 0.00 59 1017.0
20260906220104 73 99 2.6 7.0 0.00 0.00 0.00 59 1016.9
20260906215104 73 32 2.6 7.8 0.00 0.00 0.00 58 1016.9
20260906214604 73 94 4.3 10.4 0.00 0.00 0.00 58 1016.8
20260906214106 74 64 4.3 10.4 0.00 0.00 0.00 59 1016.8
20260906213605 74 70 4.3 8.7 0.00 0.00 0.00 59 1016.8
20260906213104 74 102 3.5 8.7 0.00 0.00 0.00 58 1016.8
20260906212604 74 81 2.6 8.7 0.00 0.00 0.00 56 1016.7
20260906211104 75 40 2.6 7.8 0.00 0.00 0.00 56 1016.6
20260906210604 75 62 4.3 12.2 0.00 0.00 0.00 55 1016.6
20260906210104 75 100 3.5 10.4 0.00 0.00 0.00 55 1016.5
20260906205604 75 27 2.6 5.2 0.00 0.00 0.00 56 1016.5
20260906205104 75 26 5.2 10.4 0.00 0.00 0.00 56 1016.5
20260906204604 75 79 4.3 11.3 0.00 0.00 0.00 56 1016.4
20260906204104 75 27 5.2 11.3 0.00 0.00 0.00 55 1016.5
20260906203604 76 28 3.5 10.4 0.00 0.00 0.00 56 1016.5
20260906203105 76 55 6.1 8.7 0.00 0.00 0.00 55 1016.5
20260906202604 76 47 4.3 10.4 0.00 0.00 0.00 55 1016.5
20260906201103 76 39 4.3 10.4 0.00 0.00 0.00 55 1016.4
20260906200604 76 54 5.2 10.4 0.00 0.00 0.00 55 1016.4
20260906200105 76 68 5.2 14.8 0.00 0.00 0.00 53 1016.4
20260906195605 76 82 4.3 10.4 0.00 0.00 0.00 54 1016.4
20260906195104 77 18 5.2 8.7 0.00 0.00 0.00 53 1016.3
20260906194104 76 33 4.3 7.8 0.00 0.00 0.00 53 1016.3
20260906193605 76 72 4.3 10.4 0.00 0.00 0.00 53 1016.2
20260906193104 76 110 6.1 13.9 0.00 0.00 0.00 54 1016.2
20260906192604 76 28 4.3 10.4 0.00 0.00 0.00 56 1016.2
20260906192104 76 29 6.1 12.2 0.00 0.00 0.00 55 1016.2
20260906191104 77 77 5.2 10.4 0.00 0.00 0.00 55 1016.2
20260906190604 76 60 4.3 11.3 0.00 0.00 0.00 55 1016.2
20260906190104 77 24 1.7 10.4 0.00 0.00 0.00 57 1016.3
20260906185604 77 15 4.3 8.7 0.00 0.00 0.00 55 1016.3
20260906185104 76 25 5.2 11.3 0.00 0.00 0.00 56 1016.3
20260906183605 76 40 5.2 11.3 0.00 0.00 0.00 54 1016.4
20260906183104 76 97 3.5 8.7 0.00 0.00 0.00 54 1016.4
20260906182104 76 57 5.2 11.3 0.00 0.00 0.00 53 1016.5
20260906181604 76 61 4.3 8.7 0.00 0.00 0.00 56 1016.5
20260906181104 76 55 4.3 11.3 0.00 0.00 0.00 56 1016.5
20260906180105 76 63 4.3 12.2 0.00 0.00 0.00 58 1016.5
20260906175604 76 30 5.2 10.4 0.00 0.00 0.00 59 1016.5
20260906173603 74 43 2.6 8.7 0.00 0.00 0.00 61 1016.6
20260906173103 75 90 5.2 13.9 0.00 0.00 0.00 61 1016.6
20260906172604 75 100 1.7 7.0 0.00 0.00 0.00 65 1016.7
20260906172105 74 47 2.6 10.4 0.00 0.00 0.00 63 1016.7
20260906171104 74 65 5.2 10.4 0.00 0.00 0.00 64 1016.7
20260906170604 74 60 6.1 10.4 0.00 0.00 0.00 65 1016.7
20260906170105 74 50 2.6 11.3 0.00 0.00 0.00 68 1016.8
20260906165605 74 65 4.3 8.7 0.00 0.00 0.00 66 1016.8
20260906165104 74 109 4.3 8.7 0.00 0.00 0.00 65 1016.9
20260906164604 74 65 4.3 10.4 0.00 0.00 0.00 65 1016.9
20260906164104 74 115 3.5 7.8 0.00 0.00 0.00 66 1016.8
20260906163604 74 74 4.3 8.7 0.00 0.00 0.00 66 1016.8
20260906163104 73 67 2.6 7.8 0.00 0.00 0.00 68 1016.9
20260906162604 72 55 3.5 8.7 0.00 0.00 0.00 69 1017.0
20260906162104 72 66 2.6 7.8 0.00 0.00 0.00 69 1017.0
20260906161603 73 36 6.1 10.4 0.00 0.00 0.00 68 1017.0
20260906160604 73 154 1.7 11.3 0.00 0.00 0.00 71 1017.0
20260906160104 72 72 4.3 11.3 0.00 0.00 0.00 72 1017.1
20260906155605 72 52 3.5 6.1 0.00 0.00 0.00 71 1017.1
20260906155104 73 76 4.3 7.8 0.00 0.00 0.00 70 1017.1
20260906154604 74 45 3.5 7.8 0.00 0.00 0.00 69 1017.1
20260906154104 74 43 4.3 7.8 0.00 0.00 0.00 71 1017.2
20260906153604 73 99 2.6 8.7 0.00 0.00 0.00 73 1017.1
20260906153104 73 85 2.6 7.8 0.00 0.00 0.00 73 1017.1
20260906152604 73 95 3.5 8.7 0.00 0.00 0.00 73 1017.0
20260906152104 72 149 4.3 8.7 0.00 0.00 0.00 75 1017.0
20260906151604 71 62 4.3 10.4 0.00 0.00 0.00 74 1017.0
20260906151105 71 69 3.5 8.7 0.00 0.00 0.00 75 1017.1
20260906150604 71 52 2.6 7.8 0.00 0.00 0.00 77 1017.1
20260906150104 71 97 4.3 8.7 0.00 0.00 0.00 77 1017.1
20260906145604 70 137 1.7 5.2 0.00 0.00 0.00 77 1017.2
20260906145104 70 83 1.7 7.8 0.00 0.00 0.00 77 1017.0
20260906144105 70 68 1.7 5.2 0.00 0.00 0.00 78 1017.0
20260906143604 70 59 1.7 7.8 0.00 0.00 0.00 78 1017.0
20260906143105 70 74 4.3 10.4 0.00 0.00 0.00 77 1017.0
20260906142604 70 114 4.3 8.7 0.00 0.00 0.00 77 1016.9
20260906142104 70 46 6.1 10.4 0.00 0.00 0.00 78 1017.0
20260906141604 70 50 6.1 13.9 0.00 0.00 0.00 79 1016.9
20260906141104 70 62 4.3 13.0 0.00 0.00 0.00 78 1016.8
20260906140604 70 60 5.2 12.2 0.00 0.00 0.00 78 1016.7
20260906140104 70 35 4.3 8.7 0.00 0.00 0.00 79 1016.7
20260906135605 70 46 4.3 7.8 0.00 0.00 0.00 79 1016.6
20260906135105 70 78 2.6 8.7 0.00 0.00 0.00 79 1016.7
20260906134604 70 85 2.6 8.7 0.00 0.00 0.00 80 1016.6
20260906134105 70 102 3.5 12.2 0.00 0.00 0.00 81 1016.6
20260906133604 69 69 4.3 10.4 0.00 0.00 0.00 82 1016.6
20260906133105 68 15 4.3 7.0 0.00 0.00 0.00 84 1016.6
20260906132605 67 44 1.7 8.7 0.00 0.00 0.00 85 1016.5
20260906131604 66 83 1.7 4.3 0.00 0.00 0.00 85 1016.6
20260906131104 66 0 2.6 8.7 0.00 0.00 0.00 85 1016.5
20260906130604 66 44 4.3 11.3 0.00 0.00 0.00 85 1016.5
20260906130104 67 50 3.5 11.3 0.00 0.00 0.00 86 1016.5
20260906125604 66 37 2.6 2.6 0.00 0.00 0.00 87 1016.5
20260906125104 66 33 1.7 2.6 0.00 0.00 0.00 87 1016.5
20260906124605 66 42 0.9 5.2 0.00 0.00 0.00 87 1016.4
20260906124104 66 20 2.6 6.1 0.00 0.00 0.00 86 1016.4
20260906123604 66 35 2.6 4.3 0.00 0.00 0.00 87 1016.4
20260906123104 66 81 0.9 4.3 0.00 0.00 0.00 87 1016.4
20260906122105 66 65 2.6 4.3 0.00 0.00 0.00 87 1016.3
20260906121604 66 105 1.7 2.6 0.00 0.00 0.00 88 1016.4
20260906121105 66 114 0.9 2.6 0.00 0.00 0.00 88 1016.3
20260906120605 66 114 0.0 2.6 0.00 0.00 0.00 89 1016.2
20260906115104 65 102 0.0 1.7 0.00 0.00 0.00 92 1016.2
20260906114604 65 102 0.0 0.0 0.00 0.00 0.00 92 1016.1
20260906114104 64 102 0.0 0.0 0.00 0.00 0.00 93 1016.1
20260906113604 63 102 0.0 1.7 0.00 0.00 0.00 93 1016.0
20260906113103 63 102 0.0 1.7 0.00 0.00 0.00 92 1016.0
20260906112604 63 102 0.9 1.7 0.00 0.00 0.00 93 1016.0
20260906112104 62 105 0.0 0.0 0.00 0.00 0.00 93 1015.9
20260906111604 62 105 0.0 0.0 0.00 0.00 0.00 92 1015.9
20260906111105 62 105 0.0 0.0 0.00 0.00 0.00 92 1015.8
20260906110604 62 105 0.0 0.0 0.00 0.00 0.00 92 1015.9
20260906110104 62 105 0.0 0.0 0.00 0.00 0.00 92 1015.7
20260906105604 62 105 0.0 0.0 0.00 0.00 0.00 91 1015.7
20260906105104 62 105 0.0 0.0 0.00 0.00 0.00 91 1015.6
20260906104103 62 105 0.0 0.9 0.00 0.00 0.00 91 1015.4
20260906103104 62 105 0.0 1.7 0.00 0.00 0.00 91 1015.3
20260906102604 63 106 0.0 0.0 0.00 0.00 0.00 90 1015.2
20260906101603 63 106 0.0 1.7 0.00 0.00 0.00 90 1015.1
20260906101103 63 106 0.0 0.0 0.00 0.00 0.00 90 1015.1
20260906100604 63 106 0.0 0.0 0.00 0.00 0.00 90 1015.0
20260906100104 63 106 0.0 1.7 0.00 0.00 0.00 90 1015.0
20260906095604 63 73 0.0 2.6 0.00 0.00 0.00 90 1015.0
20260906094605 63 74 0.9 5.2 0.00 0.00 0.00 90 1014.9
20260906094105 63 79 0.9 2.6 0.00 0.00 0.00 90 1014.8
20260906093603 63 77 0.9 2.6 0.00 0.00 0.00 90 1014.7
20260906093104 63 59 2.6 5.2 0.00 0.00 0.00 90 1014.7
20260906092604 63 93 0.9 2.6 0.00 0.00 0.00 90 1014.7
20260906092104 63 84 3.5 7.8 0.00 0.00 0.00 90 1014.7
20260906091605 63 80 3.5 7.8 0.00 0.00 0.00 90 1014.7
20260906091105 63 89 1.7 4.3 0.00 0.00 0.00 90 1014.6
20260906090104 64 99 1.7 2.6 0.00 0.00 0.00 90 1014.5
20260906085604 64 99 0.9 2.6 0.00 0.00 0.00 89 1014.5
20260906085104 64 106 0.0 1.7 0.00 0.00 0.00 90 1014.6
20260906084604 64 106 0.0 2.6 0.00 0.00 0.00 90 1014.7
20260906084105 64 105 0.9 2.6 0.00 0.00 0.00 90 1014.7
20260906083604 64 105 0.0 0.0 0.00 0.00 0.00 89 1014.7
20260906083104 64 103 0.0 0.0 0.00 0.00 0.00 89 1014.6
20260906082605 64 103 0.0 0.0 0.00 0.00 0.00 89 1014.5
20260906082105 64 103 0.0 0.0 0.00 0.00 0.00 89 1014.4
20260906081604 64 103 0.0 0.0 0.00 0.00 0.00 89 1014.4
20260906081104 64 103 0.0 0.0 0.00 0.00 0.00 89 1014.5
20260906080604 64 103 0.0 0.0 0.00 0.00 0.00 89 1014.3
20260906080104 64 103 0.0 0.0 0.00 0.00 0.00 89 1014.3
20260906075604 64 103 0.0 0.0 0.00 0.00 0.00 89 1014.2
20260906075104 64 103 0.0 2.6 0.00 0.00 0.00 89 1014.2
20260906074104 64 86 0.0 1.7 0.00 0.00 0.00 89 1014.1
20260906073604 64 85 0.9 2.6 0.00 0.00 0.00 89 1014.2
20260906072605 64 115 0.0 1.7 0.00 0.00 0.00 90 1014.3
20260906072104 64 114 0.9 2.6 0.00 0.00 0.00 90 1014.2
20260906071604 64 105 0.9 2.6 0.00 0.00 0.00 90 1014.2
20260906070104 65 59 0.0 0.0 0.00 0.00 0.00 90 1014.3
20260906065103 65 59 0.0 0.0 0.00 0.00 0.00 90 1014.2
20260906064604 65 59 0.0 0.0 0.00 0.00 0.00 90 1014.3
20260906064105 65 59 0.0 0.0 0.00 0.00 0.00 90 1014.4
20260906063604 65 59 0.0 0.0 0.00 0.00 0.00 90 1014.3
20260906063103 65 59 0.0 0.0 0.00 0.00 0.00 89 1014.4
20260906062605 65 59 0.0 0.0 0.00 0.00 0.00 89 1014.4
20260906062105 65 59 0.0 0.0 0.00 0.00 0.00 89 1014.3
20260906061604 65 59 0.0 0.0 0.00 0.00 0.00 89 1014.3
20260906060604 65 59 0.0 0.0 0.00 0.00 0.00 89 1014.4
20260906060104 65 59 0.0 0.0 0.00 0.00 0.00 89 1014.3
20260906055604 65 59 0.0 1.7 0.00 0.00 0.00 90 1014.4
20260906055104 65 59 0.9 2.6 0.00 0.00 0.00 90 1014.4
20260906054605 65 32 0.9 2.6 0.00 0.00 0.00 91 1014.4
20260906054105 65 53 0.0 0.0 0.00 0.00 0.00 90 1014.5
20260906053603 65 53 0.0 0.0 0.00 0.00 0.00 91 1014.6
20260906053104 65 53 0.0 0.0 0.00 0.00 0.00 91 1014.6
20260906052605 64 53 0.0 0.0 0.00 0.00 0.00 91 1014.6
20260906052105 64 53 0.0 2.6 0.00 0.00 0.00 91 1014.5
20260906051104 64 54 0.0 0.9 0.00 0.00 0.00 91 1014.5
20260906050104 64 53 0.0 0.0 0.00 0.00 0.00 91 1014.3
20260906045605 64 53 0.0 0.0 0.00 0.00 0.00 91 1014.4
20260906045104 64 53 0.0 0.0 0.00 0.00 0.00 91 1014.5
20260906044603 64 53 0.0 0.0 0.00 0.00 0.00 91 1014.5
20260906043605 64 53 0.0 0.0 0.00 0.00 0.00 91 1014.5
20260906042604 64 53 0.0 0.0 0.00 0.00 0.00 91 1014.5
20260906042104 64 53 0.0 0.0 0.00 0.00 0.00 91 1014.5
20260906041604 64 53 0.0 0.0 0.00 0.00 0.00 90 1014.5
20260906041104 64 53 0.0 0.9 0.00 0.00 0.00 90 1014.5
20260906040604 64 54 0.0 1.7 0.00 0.00 0.00 90 1014.4
20260906040105 64 45 0.0 0.0 0.00 0.00 0.00 90 1014.3
20260906035604 64 45 0.0 0.0 0.00 0.00 0.00 90 1014.3
20260906035103 64 45 0.0 0.0 0.00 0.00 0.00 90 1014.3
20260906034604 64 45 0.0 0.0 0.00 0.00 0.00 90 1014.3
20260906034104 64 45 0.0 0.0 0.00 0.00 0.00 89 1014.3
20260906033604 64 45 0.0 0.9 0.00 0.00 0.00 89 1014.3
20260906032603 64 45 0.0 1.7 0.00 0.00 0.00 89 1014.3
20260906032104 64 45 0.0 0.0 0.00 0.00 0.00 89 1014.2
20260906031604 64 45 0.0 0.0 0.00 0.00 0.00 88 1014.0
20260906031104 64 45 0.0 0.0 0.00 0.00 0.00 88 1014.0
20260906030603 64 45 0.0 0.0 0.00 0.00 0.00 88 1013.9
20260906025604 65 45 0.0 0.0 0.00 0.00 0.00 87 1013.8
20260906025104 65 45 0.0 0.0 0.00 0.00 0.00 87 1013.8
20260906024605 65 45 0.0 0.0 0.00 0.00 0.00 87 1013.9
20260906023603 66 45 0.0 0.0 0.00 0.00 0.00 86 1013.8
20260906023104 66 45 0.0 0.0 0.00 0.00 0.00 86 1013.9
20260906022104 66 45 0.0 0.0 0.00 0.00 0.00 85 1013.9
20260906021603 66 45 0.0 0.0 0.00 0.00 0.00 85 1014.0
20260906021104 66 45 0.0 0.0 0.00 0.00 0.00 84 1013.9
20260906020605 67 45 0.0 0.0 0.00 0.00 0.00 84 1013.8
20260906020104 67 45 0.0 2.6 0.00 0.00 0.00 84 1013.8
20260906015604 67 45 0.0 0.0 0.00 0.00 0.00 83 1013.8
20260906015104 67 45 0.0 0.0 0.00 0.00 0.00 82 1013.8
20260906014604 68 45 0.0 0.0 0.00 0.00 0.00 81 1013.7
20260906013604 68 45 0.0 0.0 0.00 0.00 0.00 80 1013.7
20260906013103 69 45 0.0 0.0 0.00 0.00 0.00 79 1013.7
20260906012604 69 45 0.0 0.0 0.00 0.00 0.00 78 1013.7
20260906012104 69 40 0.0 0.9 0.00 0.00 0.00 78 1013.5
20260906011604 70 44 0.0 1.7 0.00 0.00 0.00 77 1013.5
20260906011104 70 40 0.9 1.7 0.00 0.00 0.00 77 1013.6
20260906010603 70 40 1.7 2.6 0.00 0.00 0.00 77 1013.6
20260906010104 70 40 0.9 1.7 0.00 0.00 0.00 77 1013.4
20260906005604 70 40 0.0 0.0 0.00 0.00 0.00 76 1013.4
20260906004604 70 43 1.7 2.6 0.00 0.00 0.00 76 1013.2
20260906004104 70 58 1.7 2.6 0.00 0.00 0.00 76 1013.2
20260906003104 71 23 0.9 5.2 0.00 0.00 0.00 75 1013.1
20260906002603 71 40 0.0 0.9 0.00 0.00 0.00 75 1013.1
20260906002105 71 31 0.9 2.6 0.00 0.00 0.00 75 1013.1
20260906001604 71 34 1.7 4.3 0.00 0.00 0.00 75 1013.1
20260906001103 71 51 1.7 4.3 0.00 0.00 0.00 75 1013.1
20260906000604 71 26 2.6 5.2 0.00 0.00 0.00 75 1013.1
20260906000105 71 38 1.7 4.3 0.00 0.00 0.00 75 1013.0
20260905235603 71 30 1.7 4.3 0.00 0.00 0.00 75 1012.9
20260905235104 71 19 1.7 4.3 0.00 0.00 0.00 75 1012.8
20260905234604 71 48 0.0 2.6 0.00 0.00 0.00 74 1012.7
20260905234104 71 51 1.7 4.3 0.00 0.00 0.00 74 1012.6
20260905233603 71 33 1.7 4.3 0.00 0.00 0.00 74 1012.6
20260905232604 71 22 2.6 5.2 0.00 0.00 0.00 74 1012.6
20260905232103 71 31 2.6 7.8 0.00 0.00 0.00 74 1012.6